owner,sensor,date,latitude,longitude,vertical_datum,sea_water_temperature,qcFlag 
TCOON,ioos:station:TCOON:057:1,2011-02-01T00:00:00Z,28.4460,-96.3961,0.0,15.9,2 
TCOON,ioos:station:TCOON:057:1,2011-02-01T01:00:00Z,28.4460,-96.3961,0.0,15.6,2 
TCOON,ioos:station:TCOON:057:1,2011-02-01T03:00:00Z,28.4460,-96.3961,0.0,14.9,2 
TCOON,ioos:station:TCOON:057:1,2011-02-01T04:00:00Z,28.4460,-96.3961,0.0,14.4,2 
TCOON,ioos:station:TCOON:057:1,2011-02-01T05:00:00Z,28.4460,-96.3961,0.0,14.3,2 
TCOON,ioos:station:TCOON:057:1,2011-02-01T06:00:00Z,28.4460,-96.3961,0.0,14.3,2 
TCOON,ioos:station:TCOON:057:1,2011-02-01T07:00:00Z,28.4460,-96.3961,0.0,14.3,2 
TCOON,ioos:station:TCOON:057:1,2011-02-01T08:00:00Z,28.4460,-96.3961,0.0,14.4,2 
TCOON,ioos:station:TCOON:057:1,2011-02-01T09:00:00Z,28.4460,-96.3961,0.0,14.4,2 
TCOON,ioos:station:TCOON:057:1,2011-02-01T10:00:00Z,28.4460,-96.3961,0.0,14.5,2 
TCOON,ioos:station:TCOON:057:1,2011-02-01T11:00:00Z,28.4460,-96.3961,0.0,14.5,2 
TCOON,ioos:station:TCOON:057:1,2011-02-01T12:00:00Z,28.4460,-96.3961,0.0,14.7,2 
TCOON,ioos:station:TCOON:057:1,2011-02-01T13:00:00Z,28.4460,-96.3961,0.0,14.9,2 
TCOON,ioos:station:TCOON:057:1,2011-02-01T14:00:00Z,28.4460,-96.3961,0.0,15.1,2 
TCOON,ioos:station:TCOON:057:1,2011-02-01T15:00:00Z,28.4460,-96.3961,0.0,14.8,2 
TCOON,ioos:station:TCOON:057:1,2011-02-01T16:00:00Z,28.4460,-96.3961,0.0,14.7,2 
TCOON,ioos:station:TCOON:057:1,2011-02-01T17:00:00Z,28.4460,-96.3961,0.0,14.4,2 
TCOON,ioos:station:TCOON:057:1,2011-02-01T18:00:00Z,28.4460,-96.3961,0.0,14.0,2 
TCOON,ioos:station:TCOON:057:1,2011-02-01T19:00:00Z,28.4460,-96.3961,0.0,14.2,2 
TCOON,ioos:station:TCOON:057:1,2011-02-01T20:00:00Z,28.4460,-96.3961,0.0,14.3,2 
TCOON,ioos:station:TCOON:057:1,2011-02-01T21:00:00Z,28.4460,-96.3961,0.0,14.3,2 
TCOON,ioos:station:TCOON:057:1,2011-02-01T22:00:00Z,28.4460,-96.3961,0.0,14.0,2 
TCOON,ioos:station:TCOON:057:1,2011-02-01T23:00:00Z,28.4460,-96.3961,0.0,13.5,2 
TCOON,ioos:station:TCOON:057:1,2011-02-02T00:00:00Z,28.4460,-96.3961,0.0,12.6,2 
TCOON,ioos:station:TCOON:057:1,2011-02-02T01:00:00Z,28.4460,-96.3961,0.0,11.8,2 
TCOON,ioos:station:TCOON:057:1,2011-02-02T02:00:00Z,28.4460,-96.3961,0.0,11.0,2 
TCOON,ioos:station:TCOON:057:1,2011-02-02T03:00:00Z,28.4460,-96.3961,0.0,10.1,2 
TCOON,ioos:station:TCOON:057:1,2011-02-02T04:00:00Z,28.4460,-96.3961,0.0,9.3,2 
TCOON,ioos:station:TCOON:057:1,2011-02-02T05:00:00Z,28.4460,-96.3961,0.0,8.3,2 
TCOON,ioos:station:TCOON:057:1,2011-02-02T06:00:00Z,28.4460,-96.3961,0.0,7.6,2 
TCOON,ioos:station:TCOON:057:1,2011-02-02T07:00:00Z,28.4460,-96.3961,0.0,6.7,2 
TCOON,ioos:station:TCOON:057:1,2011-02-02T08:00:00Z,28.4460,-96.3961,0.0,6.7,2 
TCOON,ioos:station:TCOON:057:1,2011-02-02T09:00:00Z,28.4460,-96.3961,0.0,6.1,2 
TCOON,ioos:station:TCOON:057:1,2011-02-02T10:00:00Z,28.4460,-96.3961,0.0,5.5,2 
TCOON,ioos:station:TCOON:057:1,2011-02-02T12:00:00Z,28.4460,-96.3961,0.0,3.7,2 
TCOON,ioos:station:TCOON:057:1,2011-02-02T13:00:00Z,28.4460,-96.3961,0.0,3.3,2 
TCOON,ioos:station:TCOON:057:1,2011-02-02T14:00:00Z,28.4460,-96.3961,0.0,2.9,2 
TCOON,ioos:station:TCOON:057:1,2011-02-02T15:00:00Z,28.4460,-96.3961,0.0,2.6,2 
TCOON,ioos:station:TCOON:057:1,2011-02-02T16:00:00Z,28.4460,-96.3961,0.0,2.5,2 
TCOON,ioos:station:TCOON:057:1,2011-02-02T17:00:00Z,28.4460,-96.3961,0.0,2.3,2 
TCOON,ioos:station:TCOON:057:1,2011-02-02T18:00:00Z,28.4460,-96.3961,0.0,2.7,2 
TCOON,ioos:station:TCOON:057:1,2011-02-02T19:00:00Z,28.4460,-96.3961,0.0,3.4,2 
TCOON,ioos:station:TCOON:057:1,2011-02-02T20:00:00Z,28.4460,-96.3961,0.0,3.8,2 
TCOON,ioos:station:TCOON:057:1,2011-02-02T21:00:00Z,28.4460,-96.3961,0.0,4.1,2 
TCOON,ioos:station:TCOON:057:1,2011-02-02T22:00:00Z,28.4460,-96.3961,0.0,3.7,2 
TCOON,ioos:station:TCOON:057:1,2011-02-02T23:00:00Z,28.4460,-96.3961,0.0,3.6,2 
TCOON,ioos:station:TCOON:057:1,2011-02-03T00:00:00Z,28.4460,-96.3961,0.0,3.6,2 
TCOON,ioos:station:TCOON:057:1,2011-02-03T01:00:00Z,28.4460,-96.3961,0.0,3.7,2 
TCOON,ioos:station:TCOON:057:1,2011-02-03T02:00:00Z,28.4460,-96.3961,0.0,3.2,2 
TCOON,ioos:station:TCOON:057:1,2011-02-03T03:00:00Z,28.4460,-96.3961,0.0,3.3,2 
TCOON,ioos:station:TCOON:057:1,2011-02-03T04:00:00Z,28.4460,-96.3961,0.0,3.1,2 
TCOON,ioos:station:TCOON:057:1,2011-02-03T05:00:00Z,28.4460,-96.3961,0.0,2.9,2 
TCOON,ioos:station:TCOON:057:1,2011-02-03T06:00:00Z,28.4460,-96.3961,0.0,2.8,2 
TCOON,ioos:station:TCOON:057:1,2011-02-03T07:00:00Z,28.4460,-96.3961,0.0,2.7,2 
TCOON,ioos:station:TCOON:057:1,2011-02-03T08:00:00Z,28.4460,-96.3961,0.0,2.6,2 
TCOON,ioos:station:TCOON:057:1,2011-02-03T09:00:00Z,28.4460,-96.3961,0.0,2.5,2 
TCOON,ioos:station:TCOON:057:1,2011-02-03T10:00:00Z,28.4460,-96.3961,0.0,2.0,2 
TCOON,ioos:station:TCOON:057:1,2011-02-03T11:00:00Z,28.4460,-96.3961,0.0,2.0,2 
TCOON,ioos:station:TCOON:057:1,2011-02-03T23:00:00Z,28.4460,-96.3961,0.0,2.2,2 
TCOON,ioos:station:TCOON:057:1,2011-02-04T00:00:00Z,28.4460,-96.3961,0.0,3.7,2 
TCOON,ioos:station:TCOON:057:1,2011-02-04T01:00:00Z,28.4460,-96.3961,0.0,6.4,2 
TCOON,ioos:station:TCOON:057:1,2011-02-04T02:00:00Z,28.4460,-96.3961,0.0,4.1,2 
TCOON,ioos:station:TCOON:057:1,2011-02-04T21:00:00Z,28.4460,-96.3961,0.0,3.1,2 
TCOON,ioos:station:TCOON:057:1,2011-02-04T22:00:00Z,28.4460,-96.3961,0.0,6.4,2 
TCOON,ioos:station:TCOON:057:1,2011-02-04T23:00:00Z,28.4460,-96.3961,0.0,6.5,2 
TCOON,ioos:station:TCOON:057:1,2011-02-05T00:00:00Z,28.4460,-96.3961,0.0,6.3,2 
TCOON,ioos:station:TCOON:057:1,2011-02-05T01:00:00Z,28.4460,-96.3961,0.0,6.1,2 
TCOON,ioos:station:TCOON:057:1,2011-02-05T02:00:00Z,28.4460,-96.3961,0.0,5.9,2 
TCOON,ioos:station:TCOON:057:1,2011-02-05T03:00:00Z,28.4460,-96.3961,0.0,5.9,2 
TCOON,ioos:station:TCOON:057:1,2011-02-05T04:00:00Z,28.4460,-96.3961,0.0,5.9,2 
TCOON,ioos:station:TCOON:057:1,2011-02-05T05:00:00Z,28.4460,-96.3961,0.0,5.6,2 
TCOON,ioos:station:TCOON:057:1,2011-02-05T06:00:00Z,28.4460,-96.3961,0.0,5.5,2 
TCOON,ioos:station:TCOON:057:1,2011-02-05T07:00:00Z,28.4460,-96.3961,0.0,5.5,2 
TCOON,ioos:station:TCOON:057:1,2011-02-05T08:00:00Z,28.4460,-96.3961,0.0,5.6,2 
TCOON,ioos:station:TCOON:057:1,2011-02-05T09:00:00Z,28.4460,-96.3961,0.0,5.8,2 
TCOON,ioos:station:TCOON:057:1,2011-02-05T10:00:00Z,28.4460,-96.3961,0.0,6.1,2 
TCOON,ioos:station:TCOON:057:1,2011-02-05T11:00:00Z,28.4460,-96.3961,0.0,6.6,2 
TCOON,ioos:station:TCOON:057:1,2011-02-05T12:00:00Z,28.4460,-96.3961,0.0,7.0,2 
TCOON,ioos:station:TCOON:057:1,2011-02-05T13:00:00Z,28.4460,-96.3961,0.0,7.5,2 
TCOON,ioos:station:TCOON:057:1,2011-02-05T14:00:00Z,28.4460,-96.3961,0.0,6.8,2 
TCOON,ioos:station:TCOON:057:1,2011-02-05T15:00:00Z,28.4460,-96.3961,0.0,6.3,2 
TCOON,ioos:station:TCOON:057:1,2011-02-05T16:00:00Z,28.4460,-96.3961,0.0,6.2,2 
TCOON,ioos:station:TCOON:057:1,2011-02-05T17:00:00Z,28.4460,-96.3961,0.0,6.7,2 
TCOON,ioos:station:TCOON:057:1,2011-02-05T18:00:00Z,28.4460,-96.3961,0.0,7.1,2 
TCOON,ioos:station:TCOON:057:1,2011-02-05T19:00:00Z,28.4460,-96.3961,0.0,7.9,2 
TCOON,ioos:station:TCOON:057:1,2011-02-05T20:00:00Z,28.4460,-96.3961,0.0,8.9,2 
TCOON,ioos:station:TCOON:057:1,2011-02-05T21:00:00Z,28.4460,-96.3961,0.0,9.2,2 
TCOON,ioos:station:TCOON:057:1,2011-02-05T22:00:00Z,28.4460,-96.3961,0.0,9.0,2 
TCOON,ioos:station:TCOON:057:1,2011-02-05T23:00:00Z,28.4460,-96.3961,0.0,8.5,2 
TCOON,ioos:station:TCOON:057:1,2011-02-06T00:00:00Z,28.4460,-96.3961,0.0,8.4,2 
TCOON,ioos:station:TCOON:057:1,2011-02-06T01:00:00Z,28.4460,-96.3961,0.0,8.2,2 
TCOON,ioos:station:TCOON:057:1,2011-02-06T02:00:00Z,28.4460,-96.3961,0.0,7.7,2 
TCOON,ioos:station:TCOON:057:1,2011-02-06T03:00:00Z,28.4460,-96.3961,0.0,7.6,2 
TCOON,ioos:station:TCOON:057:1,2011-02-06T04:00:00Z,28.4460,-96.3961,0.0,7.6,2 
TCOON,ioos:station:TCOON:057:1,2011-02-06T05:00:00Z,28.4460,-96.3961,0.0,7.6,2 
TCOON,ioos:station:TCOON:057:1,2011-02-06T06:00:00Z,28.4460,-96.3961,0.0,7.5,2 
TCOON,ioos:station:TCOON:057:1,2011-02-06T07:00:00Z,28.4460,-96.3961,0.0,7.6,2 
TCOON,ioos:station:TCOON:057:1,2011-02-06T08:00:00Z,28.4460,-96.3961,0.0,7.7,2 
TCOON,ioos:station:TCOON:057:1,2011-02-06T09:00:00Z,28.4460,-96.3961,0.0,7.6,2 
TCOON,ioos:station:TCOON:057:1,2011-02-06T10:00:00Z,28.4460,-96.3961,0.0,7.6,2 
TCOON,ioos:station:TCOON:057:1,2011-02-06T11:00:00Z,28.4460,-96.3961,0.0,7.7,2 
TCOON,ioos:station:TCOON:057:1,2011-02-06T12:00:00Z,28.4460,-96.3961,0.0,7.8,2 
TCOON,ioos:station:TCOON:057:1,2011-02-06T13:00:00Z,28.4460,-96.3961,0.0,8.0,2 
TCOON,ioos:station:TCOON:057:1,2011-02-06T14:00:00Z,28.4460,-96.3961,0.0,8.0,2 
TCOON,ioos:station:TCOON:057:1,2011-02-06T15:00:00Z,28.4460,-96.3961,0.0,8.0,2 
TCOON,ioos:station:TCOON:057:1,2011-02-06T16:00:00Z,28.4460,-96.3961,0.0,7.9,2 
TCOON,ioos:station:TCOON:057:1,2011-02-06T17:00:00Z,28.4460,-96.3961,0.0,8.1,2 
TCOON,ioos:station:TCOON:057:1,2011-02-06T18:00:00Z,28.4460,-96.3961,0.0,8.5,2 
TCOON,ioos:station:TCOON:057:1,2011-02-06T19:00:00Z,28.4460,-96.3961,0.0,8.7,2 
TCOON,ioos:station:TCOON:057:1,2011-02-06T20:00:00Z,28.4460,-96.3961,0.0,9.1,2 
TCOON,ioos:station:TCOON:057:1,2011-02-06T21:00:00Z,28.4460,-96.3961,0.0,9.7,2 
TCOON,ioos:station:TCOON:057:1,2011-02-06T22:00:00Z,28.4460,-96.3961,0.0,10.4,2 
TCOON,ioos:station:TCOON:057:1,2011-02-06T23:00:00Z,28.4460,-96.3961,0.0,10.6,2 
TCOON,ioos:station:TCOON:057:1,2011-02-07T00:00:00Z,28.4460,-96.3961,0.0,10.2,2 
TCOON,ioos:station:TCOON:057:1,2011-02-07T01:00:00Z,28.4460,-96.3961,0.0,10.1,2 
TCOON,ioos:station:TCOON:057:1,2011-02-07T02:00:00Z,28.4460,-96.3961,0.0,10.1,2 
TCOON,ioos:station:TCOON:057:1,2011-02-07T03:00:00Z,28.4460,-96.3961,0.0,10.0,2 
TCOON,ioos:station:TCOON:057:1,2011-02-07T04:00:00Z,28.4460,-96.3961,0.0,10.0,2 
TCOON,ioos:station:TCOON:057:1,2011-02-07T05:00:00Z,28.4460,-96.3961,0.0,10.1,2 
TCOON,ioos:station:TCOON:057:1,2011-02-07T06:00:00Z,28.4460,-96.3961,0.0,10.0,2 
TCOON,ioos:station:TCOON:057:1,2011-02-07T07:00:00Z,28.4460,-96.3961,0.0,10.1,2 
TCOON,ioos:station:TCOON:057:1,2011-02-07T08:00:00Z,28.4460,-96.3961,0.0,10.8,2 
TCOON,ioos:station:TCOON:057:1,2011-02-07T09:00:00Z,28.4460,-96.3961,0.0,10.5,2 
TCOON,ioos:station:TCOON:057:1,2011-02-07T10:00:00Z,28.4460,-96.3961,0.0,10.5,2 
TCOON,ioos:station:TCOON:057:1,2011-02-07T11:00:00Z,28.4460,-96.3961,0.0,10.3,2 
TCOON,ioos:station:TCOON:057:1,2011-02-07T12:00:00Z,28.4460,-96.3961,0.0,10.0,2 
TCOON,ioos:station:TCOON:057:1,2011-02-07T13:00:00Z,28.4460,-96.3961,0.0,9.7,2 
TCOON,ioos:station:TCOON:057:1,2011-02-07T14:00:00Z,28.4460,-96.3961,0.0,9.3,2 
TCOON,ioos:station:TCOON:057:1,2011-02-07T15:00:00Z,28.4460,-96.3961,0.0,9.2,2 
TCOON,ioos:station:TCOON:057:1,2011-02-07T16:00:00Z,28.4460,-96.3961,0.0,9.7,2 
TCOON,ioos:station:TCOON:057:1,2011-02-07T17:00:00Z,28.4460,-96.3961,0.0,10.3,2 
TCOON,ioos:station:TCOON:057:1,2011-02-07T18:00:00Z,28.4460,-96.3961,0.0,11.1,2 
TCOON,ioos:station:TCOON:057:1,2011-02-07T19:00:00Z,28.4460,-96.3961,0.0,11.8,2 
TCOON,ioos:station:TCOON:057:1,2011-02-07T20:00:00Z,28.4460,-96.3961,0.0,12.6,2 
TCOON,ioos:station:TCOON:057:1,2011-02-07T21:00:00Z,28.4460,-96.3961,0.0,13.1,2 
TCOON,ioos:station:TCOON:057:1,2011-02-07T22:00:00Z,28.4460,-96.3961,0.0,12.8,2 
TCOON,ioos:station:TCOON:057:1,2011-02-07T23:00:00Z,28.4460,-96.3961,0.0,10.8,2 
TCOON,ioos:station:TCOON:057:1,2011-02-08T00:00:00Z,28.4460,-96.3961,0.0,11.4,2 
TCOON,ioos:station:TCOON:057:1,2011-02-08T01:00:00Z,28.4460,-96.3961,0.0,12.2,2 
TCOON,ioos:station:TCOON:057:1,2011-02-08T02:00:00Z,28.4460,-96.3961,0.0,12.6,2 
TCOON,ioos:station:TCOON:057:1,2011-02-08T03:00:00Z,28.4460,-96.3961,0.0,12.3,2 
TCOON,ioos:station:TCOON:057:1,2011-02-08T04:00:00Z,28.4460,-96.3961,0.0,12.6,2 
TCOON,ioos:station:TCOON:057:1,2011-02-08T05:00:00Z,28.4460,-96.3961,0.0,12.5,2 
TCOON,ioos:station:TCOON:057:1,2011-02-08T06:00:00Z,28.4460,-96.3961,0.0,12.4,2 
TCOON,ioos:station:TCOON:057:1,2011-02-08T07:00:00Z,28.4460,-96.3961,0.0,10.8,2 
TCOON,ioos:station:TCOON:057:1,2011-02-08T08:00:00Z,28.4460,-96.3961,0.0,11.7,2 
TCOON,ioos:station:TCOON:057:1,2011-02-08T09:00:00Z,28.4460,-96.3961,0.0,11.4,2 
TCOON,ioos:station:TCOON:057:1,2011-02-08T10:00:00Z,28.4460,-96.3961,0.0,9.8,2 
TCOON,ioos:station:TCOON:057:1,2011-02-08T11:00:00Z,28.4460,-96.3961,0.0,9.5,2 
TCOON,ioos:station:TCOON:057:1,2011-02-08T12:00:00Z,28.4460,-96.3961,0.0,9.5,2 
TCOON,ioos:station:TCOON:057:1,2011-02-08T13:00:00Z,28.4460,-96.3961,0.0,9.5,2 
TCOON,ioos:station:TCOON:057:1,2011-02-08T14:00:00Z,28.4460,-96.3961,0.0,9.4,2 
TCOON,ioos:station:TCOON:057:1,2011-02-08T15:00:00Z,28.4460,-96.3961,0.0,9.3,2 
TCOON,ioos:station:TCOON:057:1,2011-02-08T16:00:00Z,28.4460,-96.3961,0.0,9.6,2 
TCOON,ioos:station:TCOON:057:1,2011-02-08T17:00:00Z,28.4460,-96.3961,0.0,10.1,2 
TCOON,ioos:station:TCOON:057:1,2011-02-08T18:00:00Z,28.4460,-96.3961,0.0,10.2,2 
TCOON,ioos:station:TCOON:057:1,2011-02-08T19:00:00Z,28.4460,-96.3961,0.0,10.6,2 
TCOON,ioos:station:TCOON:057:1,2011-02-08T20:00:00Z,28.4460,-96.3961,0.0,10.7,2 
TCOON,ioos:station:TCOON:057:1,2011-02-08T21:00:00Z,28.4460,-96.3961,0.0,11.0,2 
TCOON,ioos:station:TCOON:057:1,2011-02-08T22:00:00Z,28.4460,-96.3961,0.0,11.5,2 
TCOON,ioos:station:TCOON:057:1,2011-02-08T23:00:00Z,28.4460,-96.3961,0.0,11.3,2 
TCOON,ioos:station:TCOON:057:1,2011-02-09T00:00:00Z,28.4460,-96.3961,0.0,11.4,2 
TCOON,ioos:station:TCOON:057:1,2011-02-09T01:00:00Z,28.4460,-96.3961,0.0,11.9,2 
TCOON,ioos:station:TCOON:057:1,2011-02-09T02:00:00Z,28.4460,-96.3961,0.0,11.5,2 
TCOON,ioos:station:TCOON:057:1,2011-02-09T03:00:00Z,28.4460,-96.3961,0.0,11.6,2 
TCOON,ioos:station:TCOON:057:1,2011-02-09T04:00:00Z,28.4460,-96.3961,0.0,12.0,2 
TCOON,ioos:station:TCOON:057:1,2011-02-09T05:00:00Z,28.4460,-96.3961,0.0,12.0,2 
TCOON,ioos:station:TCOON:057:1,2011-02-09T06:00:00Z,28.4460,-96.3961,0.0,12.0,2 
TCOON,ioos:station:TCOON:057:1,2011-02-09T07:00:00Z,28.4460,-96.3961,0.0,12.0,2 
TCOON,ioos:station:TCOON:057:1,2011-02-09T08:00:00Z,28.4460,-96.3961,0.0,12.1,2 
TCOON,ioos:station:TCOON:057:1,2011-02-09T10:00:00Z,28.4460,-96.3961,0.0,12.1,2 
TCOON,ioos:station:TCOON:057:1,2011-02-09T11:00:00Z,28.4460,-96.3961,0.0,12.1,2 
TCOON,ioos:station:TCOON:057:1,2011-02-09T12:00:00Z,28.4460,-96.3961,0.0,12.0,2 
TCOON,ioos:station:TCOON:057:1,2011-02-09T13:00:00Z,28.4460,-96.3961,0.0,11.9,2 
TCOON,ioos:station:TCOON:057:1,2011-02-09T14:00:00Z,28.4460,-96.3961,0.0,12.0,2 
TCOON,ioos:station:TCOON:057:1,2011-02-09T15:00:00Z,28.4460,-96.3961,0.0,12.2,2 
TCOON,ioos:station:TCOON:057:1,2011-02-09T16:00:00Z,28.4460,-96.3961,0.0,12.3,2 
TCOON,ioos:station:TCOON:057:1,2011-02-09T17:00:00Z,28.4460,-96.3961,0.0,12.0,2 
TCOON,ioos:station:TCOON:057:1,2011-02-09T18:00:00Z,28.4460,-96.3961,0.0,11.2,2 
TCOON,ioos:station:TCOON:057:1,2011-02-09T19:00:00Z,28.4460,-96.3961,0.0,10.3,2 
TCOON,ioos:station:TCOON:057:1,2011-02-09T20:00:00Z,28.4460,-96.3961,0.0,9.8,2 
TCOON,ioos:station:TCOON:057:1,2011-02-09T21:00:00Z,28.4460,-96.3961,0.0,9.4,2 
TCOON,ioos:station:TCOON:057:1,2011-02-09T22:00:00Z,28.4460,-96.3961,0.0,8.9,2 
TCOON,ioos:station:TCOON:057:1,2011-02-09T23:00:00Z,28.4460,-96.3961,0.0,8.2,2 
TCOON,ioos:station:TCOON:057:1,2011-02-10T00:00:00Z,28.4460,-96.3961,0.0,7.7,2 
TCOON,ioos:station:TCOON:057:1,2011-02-10T01:00:00Z,28.4460,-96.3961,0.0,7.2,2 
TCOON,ioos:station:TCOON:057:1,2011-02-10T02:00:00Z,28.4460,-96.3961,0.0,6.3,2 
TCOON,ioos:station:TCOON:057:1,2011-02-10T03:00:00Z,28.4460,-96.3961,0.0,5.7,2 
TCOON,ioos:station:TCOON:057:1,2011-02-10T04:00:00Z,28.4460,-96.3961,0.0,5.2,2 
TCOON,ioos:station:TCOON:057:1,2011-02-10T05:00:00Z,28.4460,-96.3961,0.0,4.6,2 
TCOON,ioos:station:TCOON:057:1,2011-02-10T06:00:00Z,28.4460,-96.3961,0.0,4.1,2 
TCOON,ioos:station:TCOON:057:1,2011-02-10T07:00:00Z,28.4460,-96.3961,0.0,3.6,2 
TCOON,ioos:station:TCOON:057:1,2011-02-10T08:00:00Z,28.4460,-96.3961,0.0,3.2,2 
TCOON,ioos:station:TCOON:057:1,2011-02-10T09:00:00Z,28.4460,-96.3961,0.0,2.7,2 
TCOON,ioos:station:TCOON:057:1,2011-02-10T10:00:00Z,28.4460,-96.3961,0.0,2.3,2 
TCOON,ioos:station:TCOON:057:1,2011-02-10T11:00:00Z,28.4460,-96.3961,0.0,1.9,11133222 
TCOON,ioos:station:TCOON:057:1,2011-02-10T12:00:00Z,28.4460,-96.3961,0.0,1.7,11133222 
TCOON,ioos:station:TCOON:057:1,2011-02-10T13:00:00Z,28.4460,-96.3961,0.0,1.4,11133222 
TCOON,ioos:station:TCOON:057:1,2011-02-10T14:00:00Z,28.4460,-96.3961,0.0,1.2,11133222 
TCOON,ioos:station:TCOON:057:1,2011-02-10T15:00:00Z,28.4460,-96.3961,0.0,0.9,11133222 
TCOON,ioos:station:TCOON:057:1,2011-02-10T16:00:00Z,28.4460,-96.3961,0.0,1.1,11133222 
TCOON,ioos:station:TCOON:057:1,2011-02-10T17:00:00Z,28.4460,-96.3961,0.0,1.7,11133222 
TCOON,ioos:station:TCOON:057:1,2011-02-10T18:00:00Z,28.4460,-96.3961,0.0,2.8,2 
TCOON,ioos:station:TCOON:057:1,2011-02-10T19:00:00Z,28.4460,-96.3961,0.0,5.3,2 
TCOON,ioos:station:TCOON:057:1,2011-02-10T20:00:00Z,28.4460,-96.3961,0.0,5.0,2 
TCOON,ioos:station:TCOON:057:1,2011-02-10T21:00:00Z,28.4460,-96.3961,0.0,6.0,2 
TCOON,ioos:station:TCOON:057:1,2011-02-10T22:00:00Z,28.4460,-96.3961,0.0,6.3,2 
TCOON,ioos:station:TCOON:057:1,2011-02-10T23:00:00Z,28.4460,-96.3961,0.0,6.4,2 
TCOON,ioos:station:TCOON:057:1,2011-02-11T00:00:00Z,28.4460,-96.3961,0.0,6.6,2 
TCOON,ioos:station:TCOON:057:1,2011-02-11T01:00:00Z,28.4460,-96.3961,0.0,7.1,2 
TCOON,ioos:station:TCOON:057:1,2011-02-11T02:00:00Z,28.4460,-96.3961,0.0,7.0,2 
TCOON,ioos:station:TCOON:057:1,2011-02-11T03:00:00Z,28.4460,-96.3961,0.0,6.1,2 
TCOON,ioos:station:TCOON:057:1,2011-02-11T04:00:00Z,28.4460,-96.3961,0.0,5.9,2 
TCOON,ioos:station:TCOON:057:1,2011-02-11T05:00:00Z,28.4460,-96.3961,0.0,5.6,2 
TCOON,ioos:station:TCOON:057:1,2011-02-11T06:00:00Z,28.4460,-96.3961,0.0,5.5,2 
TCOON,ioos:station:TCOON:057:1,2011-02-11T07:00:00Z,28.4460,-96.3961,0.0,5.3,2 
TCOON,ioos:station:TCOON:057:1,2011-02-11T08:00:00Z,28.4460,-96.3961,0.0,5.0,2 
TCOON,ioos:station:TCOON:057:1,2011-02-11T09:00:00Z,28.4460,-96.3961,0.0,4.7,2 
TCOON,ioos:station:TCOON:057:1,2011-02-11T10:00:00Z,28.4460,-96.3961,0.0,4.6,2 
TCOON,ioos:station:TCOON:057:1,2011-02-11T11:00:00Z,28.4460,-96.3961,0.0,4.5,2 
TCOON,ioos:station:TCOON:057:1,2011-02-11T12:00:00Z,28.4460,-96.3961,0.0,4.3,2 
TCOON,ioos:station:TCOON:057:1,2011-02-11T13:00:00Z,28.4460,-96.3961,0.0,4.3,2 
TCOON,ioos:station:TCOON:057:1,2011-02-11T14:00:00Z,28.4460,-96.3961,0.0,6.8,2 
TCOON,ioos:station:TCOON:057:1,2011-02-11T15:00:00Z,28.4460,-96.3961,0.0,7.1,2 
TCOON,ioos:station:TCOON:057:1,2011-02-11T16:00:00Z,28.4460,-96.3961,0.0,7.4,2 
TCOON,ioos:station:TCOON:057:1,2011-02-11T17:00:00Z,28.4460,-96.3961,0.0,7.6,2 
TCOON,ioos:station:TCOON:057:1,2011-02-11T18:00:00Z,28.4460,-96.3961,0.0,7.4,2 
TCOON,ioos:station:TCOON:057:1,2011-02-11T19:00:00Z,28.4460,-96.3961,0.0,7.6,2 
TCOON,ioos:station:TCOON:057:1,2011-02-11T20:00:00Z,28.4460,-96.3961,0.0,7.9,2 
TCOON,ioos:station:TCOON:057:1,2011-02-11T21:00:00Z,28.4460,-96.3961,0.0,8.3,2 
TCOON,ioos:station:TCOON:057:1,2011-02-11T22:00:00Z,28.4460,-96.3961,0.0,8.5,2 
TCOON,ioos:station:TCOON:057:1,2011-02-11T23:00:00Z,28.4460,-96.3961,0.0,8.5,2 
TCOON,ioos:station:TCOON:057:1,2011-02-12T00:00:00Z,28.4460,-96.3961,0.0,8.5,2 
TCOON,ioos:station:TCOON:057:1,2011-02-12T01:00:00Z,28.4460,-96.3961,0.0,8.8,2 
TCOON,ioos:station:TCOON:057:1,2011-02-12T02:00:00Z,28.4460,-96.3961,0.0,9.1,2 
TCOON,ioos:station:TCOON:057:1,2011-02-12T03:00:00Z,28.4460,-96.3961,0.0,9.1,2 
TCOON,ioos:station:TCOON:057:1,2011-02-12T04:00:00Z,28.4460,-96.3961,0.0,9.0,2 
TCOON,ioos:station:TCOON:057:1,2011-02-12T05:00:00Z,28.4460,-96.3961,0.0,8.6,2 
TCOON,ioos:station:TCOON:057:1,2011-02-12T06:00:00Z,28.4460,-96.3961,0.0,8.0,2 
TCOON,ioos:station:TCOON:057:1,2011-02-12T07:00:00Z,28.4460,-96.3961,0.0,7.9,2 
TCOON,ioos:station:TCOON:057:1,2011-02-12T08:00:00Z,28.4460,-96.3961,0.0,8.0,2 
TCOON,ioos:station:TCOON:057:1,2011-02-12T09:00:00Z,28.4460,-96.3961,0.0,7.9,2 
TCOON,ioos:station:TCOON:057:1,2011-02-12T10:00:00Z,28.4460,-96.3961,0.0,7.8,2 
TCOON,ioos:station:TCOON:057:1,2011-02-12T11:00:00Z,28.4460,-96.3961,0.0,7.7,2 
TCOON,ioos:station:TCOON:057:1,2011-02-12T12:00:00Z,28.4460,-96.3961,0.0,7.6,2 
TCOON,ioos:station:TCOON:057:1,2011-02-12T13:00:00Z,28.4460,-96.3961,0.0,7.4,2 
TCOON,ioos:station:TCOON:057:1,2011-02-12T14:00:00Z,28.4460,-96.3961,0.0,7.3,2 
TCOON,ioos:station:TCOON:057:1,2011-02-12T15:00:00Z,28.4460,-96.3961,0.0,7.1,2 
TCOON,ioos:station:TCOON:057:1,2011-02-12T16:00:00Z,28.4460,-96.3961,0.0,7.4,2 
TCOON,ioos:station:TCOON:057:1,2011-02-12T17:00:00Z,28.4460,-96.3961,0.0,8.0,2 
TCOON,ioos:station:TCOON:057:1,2011-02-12T18:00:00Z,28.4460,-96.3961,0.0,8.8,2 
TCOON,ioos:station:TCOON:057:1,2011-02-12T19:00:00Z,28.4460,-96.3961,0.0,9.0,2 
TCOON,ioos:station:TCOON:057:1,2011-02-12T20:00:00Z,28.4460,-96.3961,0.0,9.2,11133222 
TCOON,ioos:station:TCOON:057:1,2011-02-12T21:00:00Z,28.4460,-96.3961,0.0,9.4,11133222 
TCOON,ioos:station:TCOON:057:1,2011-02-12T22:00:00Z,28.4460,-96.3961,0.0,9.6,11133222 
TCOON,ioos:station:TCOON:057:1,2011-02-12T23:00:00Z,28.4460,-96.3961,0.0,9.8,11133222 
TCOON,ioos:station:TCOON:057:1,2011-02-13T00:00:00Z,28.4460,-96.3961,0.0,10.0,11111222 
TCOON,ioos:station:TCOON:057:1,2011-02-13T01:00:00Z,28.4460,-96.3961,0.0,10.0,11111222 
TCOON,ioos:station:TCOON:057:1,2011-02-13T02:00:00Z,28.4460,-96.3961,0.0,10.0,11111222 
TCOON,ioos:station:TCOON:057:1,2011-02-13T03:00:00Z,28.4460,-96.3961,0.0,10.0,11111222 
TCOON,ioos:station:TCOON:057:1,2011-02-13T04:00:00Z,28.4460,-96.3961,0.0,10.0,11111222 
TCOON,ioos:station:TCOON:057:1,2011-02-13T05:00:00Z,28.4460,-96.3961,0.0,9.9,11133222 
TCOON,ioos:station:TCOON:057:1,2011-02-13T06:00:00Z,28.4460,-96.3961,0.0,9.6,11133222 
TCOON,ioos:station:TCOON:057:1,2011-02-13T07:00:00Z,28.4460,-96.3961,0.0,9.4,11133222 
TCOON,ioos:station:TCOON:057:1,2011-02-13T08:00:00Z,28.4460,-96.3961,0.0,9.5,11133222 
TCOON,ioos:station:TCOON:057:1,2011-02-13T09:00:00Z,28.4460,-96.3961,0.0,9.5,2 
TCOON,ioos:station:TCOON:057:1,2011-02-13T10:00:00Z,28.4460,-96.3961,0.0,9.4,11133222 
TCOON,ioos:station:TCOON:057:1,2011-02-13T11:00:00Z,28.4460,-96.3961,0.0,9.4,11133222 
TCOON,ioos:station:TCOON:057:1,2011-02-13T12:00:00Z,28.4460,-96.3961,0.0,9.4,11133222 
TCOON,ioos:station:TCOON:057:1,2011-02-13T13:00:00Z,28.4460,-96.3961,0.0,9.3,2 
TCOON,ioos:station:TCOON:057:1,2011-02-13T14:00:00Z,28.4460,-96.3961,0.0,8.9,2 
TCOON,ioos:station:TCOON:057:1,2011-02-13T15:00:00Z,28.4460,-96.3961,0.0,8.5,2 
TCOON,ioos:station:TCOON:057:1,2011-02-13T16:00:00Z,28.4460,-96.3961,0.0,8.6,2 
TCOON,ioos:station:TCOON:057:1,2011-02-13T17:00:00Z,28.4460,-96.3961,0.0,8.9,2 
TCOON,ioos:station:TCOON:057:1,2011-02-13T18:00:00Z,28.4460,-96.3961,0.0,9.2,2 
TCOON,ioos:station:TCOON:057:1,2011-02-13T19:00:00Z,28.4460,-96.3961,0.0,9.6,2 
TCOON,ioos:station:TCOON:057:1,2011-02-13T20:00:00Z,28.4460,-96.3961,0.0,10.4,2 
TCOON,ioos:station:TCOON:057:1,2011-02-13T21:00:00Z,28.4460,-96.3961,0.0,11.1,2 
TCOON,ioos:station:TCOON:057:1,2011-02-13T22:00:00Z,28.4460,-96.3961,0.0,11.6,2 
TCOON,ioos:station:TCOON:057:1,2011-02-13T23:00:00Z,28.4460,-96.3961,0.0,11.6,2 
TCOON,ioos:station:TCOON:057:1,2011-02-14T00:00:00Z,28.4460,-96.3961,0.0,11.6,2 
TCOON,ioos:station:TCOON:057:1,2011-02-14T01:00:00Z,28.4460,-96.3961,0.0,11.6,2 
TCOON,ioos:station:TCOON:057:1,2011-02-14T02:00:00Z,28.4460,-96.3961,0.0,11.6,2 
TCOON,ioos:station:TCOON:057:1,2011-02-14T03:00:00Z,28.4460,-96.3961,0.0,11.6,2 
TCOON,ioos:station:TCOON:057:1,2011-02-14T04:00:00Z,28.4460,-96.3961,0.0,11.5,2 
TCOON,ioos:station:TCOON:057:1,2011-02-14T05:00:00Z,28.4460,-96.3961,0.0,11.5,2 
TCOON,ioos:station:TCOON:057:1,2011-02-14T06:00:00Z,28.4460,-96.3961,0.0,11.5,2 
TCOON,ioos:station:TCOON:057:1,2011-02-14T07:00:00Z,28.4460,-96.3961,0.0,11.5,2 
TCOON,ioos:station:TCOON:057:1,2011-02-14T08:00:00Z,28.4460,-96.3961,0.0,11.4,2 
TCOON,ioos:station:TCOON:057:1,2011-02-14T09:00:00Z,28.4460,-96.3961,0.0,11.4,2 
TCOON,ioos:station:TCOON:057:1,2011-02-14T10:00:00Z,28.4460,-96.3961,0.0,11.3,2 
TCOON,ioos:station:TCOON:057:1,2011-02-14T11:00:00Z,28.4460,-96.3961,0.0,11.3,2 
TCOON,ioos:station:TCOON:057:1,2011-02-14T12:00:00Z,28.4460,-96.3961,0.0,11.4,2 
TCOON,ioos:station:TCOON:057:1,2011-02-14T13:00:00Z,28.4460,-96.3961,0.0,11.4,2 
TCOON,ioos:station:TCOON:057:1,2011-02-14T14:00:00Z,28.4460,-96.3961,0.0,11.4,2 